EHI
0 0 0 0 0 0 0 0 0 0 0 0 0 0 0 0 0 0 0 0 0 0 0 0 0 0 0 0 0 0 0 0 0 0 0 0 0 0
0 0 0 0 0 0 0 0 0 0 0 0 0 0 0 0 0 0 0 0 0 0 0 0 0 0 0 0 0 0 0 0 0 0 0 0 0 0
0 0 0 0 0 0 0 0 0 0 0 0 0 0 0 0 0 0 0 0 0 0 0 0 0 0 0 0 0 0 0 0 0 0 0 0 0 0
0 0 0 0 0 0 0 0 0 0 0 0 0 0 0 0 0 0 0 0 0 0 0 0 0 0 0 0 0 0 0 0 0 0 0 0 0 0
0 0 0 0 0 0 0 0 0 0 0 0 0 0 0 0 0 0 0 0 0 0 0 0 0 0 0 0 0 0 0 0 0 0 0 0 0 0
0 0 0 0 0 0 0 0 0 0 0 0 0 0 0 0 0 0 0 0 0 0 0 0 0 0 0 0 0 0 0 0 0 0 0 0 0 0
0 0 0 0 0 0 0 0 0 0 0 0 0 0 0 0 0 0 0 0 0 0 0 0 0 0 0 0 0 0 0 0 0 0 0 0 0 0
0 0 0 0 0 0 0 0 0 0 0 0 0 0 0 0 0 0 0 0 0 0 0 0 0 0 0 0 0 0 0 0 0 0 0 0 0 0
0 0 0 0 0 0 0 0 0 0 0 0 0 0 0 0 0 0 0 0 0 0 0 0 0 0 0 0 0 0 0 0 0 0 0 0 0 0
0 0 0 0 0 0 0 0 0 0 0 0 0 0 0 0 0 0 0 0 0 0 0 0 0 0 0 0 0 0 0 0 0 0 0 0 0 0
0 0 0 0 0 0 0 0 0 0 0 0 0 0 0 0 0 0 0 0 0 0 0 0 0 0 0 0 0 0 0 0 0 0 0 0 0 0
0 0 0 0 0 0 0 0 0 0 0 0 0 0 0 0 0 0 0 0 0 0 0 0 0 0 0 0 0 0 0 0 0 0 0 0 0 0
0 0 0 0 0 0 0 0 0 0 0 0 0 0 0 0 0 0 0 0 0 0 0 0 0 0 0 0 0 0 0 0 0 0 0 0 0 0
0 0 0 0 0 0 0 0 0 0 0 0 0 0 0 0 0 0 0 0 0 0 0 0 0 0 0 0 0 0 0 0 0 0 0 0 0 0
0 0 0 0 0 0 0 0 0 0 0 0 0 0 0 0 0 0 0 0 0 0 0 0 0 0 0 0 0 0 0 0 0 0 0 0 0 0
0 0 0 0 0 0 0 0 0 0 0 0 0 0 0 0 0 0 0 0 0 0 0 0 0 0 0 0 0 0 0 0 0 0 0 0 0 0
0 0 0 0 0 0 0 0 0 0 0 0 0 0 0 0 0 0 0 0 0 0 0 0 0 0 0 0 0 0 0 0 0 0 0 0 0 0
0 0 0 0 0 0 0 0 0 0 0 0 0 0 0 0 0 0 0 0 0 0 0 0 0 0 0 0 0 0 0 0 0 0 0 0 0 0
0 0 0 0 0 0 0 0 0 0 0 0 0 0 0 0 0 0 0 0 0 0 0 0 0 0 0 0 0 0 0 0 0 0 0 0 0 0
0 0 0 0 0 0 0 0 0 0 0 0 0 0 0 0 0 0 0 0 0 0 0 0 0 0 0 0 0 0 0 0 0 0 0 0 0 0
0 0 0 0 0 0 0 0 0 0 0 0 0 0 0 0 0 0 0 0 0 0 0 0 0 0 0 0 0 0 0 0 0 0 0 0 0 0
0 0 0 0 0 0 0 0 0 0 0 0 0 0 0 0 0 0 0 0 0 0 0 0 0 0 0 0 0 0 0 0 0 0 0 0 0 0
0 0 0 0 0 0 0 0 0 0 0 0 0 0 0 0 0 0 0 0 0 0 0 0 0 0 0 0 0 0 0 0 0 0 0 0 0 0
Wind_Speed
3 3 2 2 2 2 2 2 3 5 5 3 2 3 3 3 6 5 4 10 11 11 12 12 12 13 13 13 13 14 14 13 12 12 12 13 13 13
2 3 3 2 2 2 2 3 3 4 5 3 3 4 5 5 8 5 5 11 11 11 12 12 12 13 13 12 12 12 12 12 12 13 13 13 13 13
2 2 3 3 2 2 2 2 3 3 6 5 4 4 5 5 5 4 5 5 5 10 12 12 12 13 13 12 12 12 12 12 13 13 14 14 14 13
2 2 3 3 3 3 2 3 3 3 4 7 5 4 5 5 5 5 5 5 4 9 11 12 11 12 12 12 12 12 12 12 13 13 14 14 13 13
2 2 3 3 3 3 3 3 3 4 4 5 5 4 4 5 5 5 5 4 5 7 9 11 11 12 12 12 12 12 12 12 12 13 13 13 12 12
2 2 3 3 4 4 3 3 3 3 3 4 4 4 4 4 4 4 5 4 5 6 7 8 10 12 12 13 13 12 12 12 12 13 13 12 12 12
2 3 3 4 6 4 4 3 3 3 3 4 4 4 4 4 4 4 6 5 5 4 4 5 5 5 6 10 11 12 12 11 11 12 12 11 10 11
2 2 3 4 6 7 8 7 6 4 4 4 4 5 6 5 5 5 5 6 5 3 4 6 4 5 5 5 10 12 12 11 11 11 12 11 10 10
2 2 3 3 5 3 6 7 7 9 8 6 5 6 6 5 5 6 6 6 7 5 5 7 4 5 5 7 12 12 12 12 12 12 12 11 11 11
2 2 2 3 4 4 4 4 4 4 6 5 4 5 6 5 5 6 7 7 7 5 4 6 5 5 6 5 10 12 11 11 12 12 12 12 12 11
3 2 3 3 6 8 4 4 5 5 7 10 10 9 11 11 9 5 5 5 7 5 3 4 4 5 5 5 6 9 10 11 12 12 12 12 12 11
2 3 5 5 7 7 4 3 5 5 5 6 7 8 7 8 9 5 4 5 6 5 3 3 3 3 5 3 3 4 5 9 12 13 13 12 11 6
2 2 3 7 8 8 6 4 6 7 5 5 5 4 4 4 4 4 4 4 5 6 4 3 3 3 4 5 4 3 3 4 5 8 10 12 11 8
2 2 3 7 8 8 6 7 9 8 3 3 4 4 4 4 4 4 5 5 5 7 6 5 5 4 5 6 5 4 3 4 4 5 5 8 9 10
2 5 7 8 8 6 7 9 7 4 3 3 4 4 4 4 4 4 5 5 5 5 4 5 5 5 5 6 6 5 5 4 3 4 4 4 4 4
3 5 7 7 6 6 6 5 3 3 3 3 4 4 4 4 4 4 5 5 4 4 4 4 4 5 5 6 5 6 4 4 4 4 4 4 4 3
2 2 2 2 2 3 3 3 3 3 3 3 4 4 4 4 4 4 4 4 4 5 5 4 3 3 5 5 5 5 5 4 4 4 4 5 4 3
2 2 2 2 2 3 3 3 3 3 3 4 4 4 4 4 5 4 4 4 5 5 5 5 4 4 3 3 4 5 4 4 4 4 3 4 5 4
1 1 2 2 3 3 3 3 4 4 4 4 4 4 4 4 5 5 5 5 5 5 4 4 3 3 5 6 4 3 4 4 3 3 3 3 4 4
1 1 2 2 2 3 3 4 4 4 4 4 4 4 4 4 5 5 5 5 5 5 5 4 3 3 4 5 5 4 5 4 3 4 4 3 3 4
2 2 2 2 2 3 3 3 4 4 4 4 4 4 4 4 5 5 5 7 6 5 5 5 5 6 4 2 3 4 4 5 4 3 3 3 3 3
2 2 2 2 3 3 3 3 4 4 4 4 4 4 4 5 5 5 5 5 5 5 5 5 4 3 2 2 4 5 5 5 5 6 5 4 2 2
2 2 2 3 3 3 3 4 4 4 4 4 4 4 5 5 4 4 5 5 5 5 5 4 3 2 2 3 3 4 5 5 3 3 4 6 5 5
Wind_Direction
245 250 258 263 264 261 253 244 259 282 283 274 290 304 306 302 299 295 291 299 302 303 305 307 310 308 300 297 296 295 293 291 289 287 283 279 278 275
247 247 257 264 265 263 258 255 250 258 274 280 284 298 304 303 305 303 291 300 299 300 301 305 307 307 305 302 300 298 297 296 290 285 282 279 276 274
280 267 265 266 267 271 269 266 262 259 272 284 290 299 298 299 304 300 297 292 292 299 301 302 304 304 303 300 300 299 298 296 294 290 283 279 276 274
282 285 281 283 275 273 269 265 263 261 265 282 293 298 296 298 300 302 303 301 297 303 302 304 307 307 306 303 301 299 298 296 295 294 288 281 276 273
284 281 285 290 284 275 269 269 268 275 269 277 287 291 297 302 303 302 299 298 299 302 302 303 306 308 307 306 302 300 297 297 299 300 296 286 279 275
287 281 279 279 280 275 273 269 268 272 274 279 285 292 295 303 302 302 303 304 301 301 297 301 304 305 303 302 302 301 296 295 297 299 298 291 282 275
288 285 284 291 292 291 287 275 272 272 279 281 285 294 296 306 303 299 297 299 294 283 291 294 296 293 294 296 298 298 297 296 298 299 298 291 287 279
289 298 296 294 301 306 308 306 293 280 275 275 284 287 291 293 296 298 301 305 298 285 292 292 287 284 284 281 294 299 298 296 296 296 297 294 289 284
296 300 305 308 311 302 305 308 307 302 293 280 276 278 284 288 291 293 293 294 289 290 292 286 280 283 287 292 297 296 299 301 301 298 296 297 293 287
294 287 286 294 297 303 298 303 299 301 299 295 275 274 281 284 278 280 283 288 286 282 276 279 280 281 290 285 293 294 299 302 304 303 300 299 295 290
288 294 291 282 299 306 309 302 302 300 305 303 299 299 301 300 296 291 288 290 293 291 267 268 281 295 286 276 286 300 305 306 305 305 304 302 297 292
303 306 306 309 310 311 304 294 295 297 303 306 306 306 303 302 304 290 283 287 294 293 279 281 284 308 299 278 279 296 299 303 303 304 305 302 297 290
306 308 308 314 314 315 312 297 296 303 299 297 300 305 306 303 299 291 281 275 278 279 285 286 281 278 268 288 289 283 284 294 300 299 300 301 300 292
295 298 301 313 317 318 314 311 312 311 303 302 303 302 304 305 303 299 292 281 272 274 280 277 269 270 277 285 289 295 293 290 290 291 292 297 297 297
294 302 308 314 317 315 318 319 319 314 309 309 305 302 301 299 303 303 298 291 286 283 287 285 278 275 269 274 286 294 301 299 289 290 296 298 298 303
305 307 312 314 315 314 318 319 314 307 309 298 298 299 302 305 306 306 308 311 309 309 303 291 287 284 277 277 279 288 290 290 300 299 300 298 300 295
304 309 313 314 317 316 312 310 310 315 313 302 299 303 308 311 310 309 307 308 302 305 313 310 295 280 276 274 280 284 288 288 290 296 301 300 299 296
315 301 306 311 311 310 310 309 308 308 303 302 302 303 306 306 306 307 306 301 300 301 301 306 311 310 305 286 263 275 285 287 296 299 295 294 300 303
311 301 305 312 313 316 317 313 309 305 304 303 302 303 304 303 303 304 306 304 299 296 297 302 307 305 306 306 301 280 286 298 303 302 294 283 288 299
284 284 294 299 305 309 310 308 307 307 305 302 301 303 303 303 304 303 304 305 304 303 304 304 300 293 284 289 292 300 300 288 291 296 300 298 298 306
286 285 288 292 296 300 301 301 301 304 306 305 303 303 302 300 299 299 299 302 302 302 302 301 293 296 288 287 292 301 305 301 295 287 293 302 311 318
290 293 298 298 298 299 300 302 303 303 305 304 303 303 301 297 296 298 298 298 298 297 296 296 299 303 294 288 294 301 307 317 320 316 302 284 273 274
289 293 298 299 298 298 299 299 301 302 304 304 304 303 302 301 299 299 300 299 300 302 304 304 307 299 288 281 289 298 306 315 324 331 327 325 309 293